Time,TemperatureF,DewpointF,PressureIn,WindDirection,WindDirectionDegrees,WindSpeedMPH,WindSpeedGustMPH,Humidity,HourlyPrecipIn,Conditions,Clouds,dailyrainin,SoftwareType,DateUTC
2013-02-06 00:02:00,40.8,38.9,30.01,WNW,292,6.8,-999.0,93,-99.99,,,0.00,Acu-Link.com,2013-02-06 08:02:00,
2013-02-06 00:17:00,40.5,38.9,30.01,West,270,6.8,-999.0,94,-99.99,,,0.00,Acu-Link.com,2013-02-06 08:17:00,
2013-02-06 00:32:00,40.5,38.9,30.02,WNW,292,4.7,-999.0,94,-99.99,,,0.00,Acu-Link.com,2013-02-06 08:32:00,
2013-02-06 00:48:00,40.5,38.9,30.01,West,270,4.7,-999.0,94,-99.99,,,0.00,Acu-Link.com,2013-02-06 08:48:00,
2013-02-06 01:18:00,40.5,38.9,30.00,West,270,4.7,-999.0,94,-99.99,,,0.00,Acu-Link.com,2013-02-06 09:18:00,
2013-02-06 01:33:00,39.9,38.3,30.00,West,270,5.3,-999.0,94,-99.99,,,0.00,Acu-Link.com,2013-02-06 09:33:00,
2013-02-06 01:49:00,40.1,38.5,29.99,WNW,292,4.7,-999.0,94,-99.99,,,0.00,Acu-Link.com,2013-02-06 09:49:00,
2013-02-06 02:04:00,39.6,38.3,30.00,West,270,5.3,-999.0,95,-99.99,,,0.00,Acu-Link.com,2013-02-06 10:04:00,
2013-02-06 02:20:00,39.9,38.0,30.00,West,270,5.8,-999.0,93,-99.99,,,0.00,Acu-Link.com,2013-02-06 10:20:00,
2013-02-06 02:35:00,40.5,37.8,30.00,West,270,6.3,-999.0,90,-99.99,,,0.00,Acu-Link.com,2013-02-06 10:35:00,
2013-02-06 02:50:00,40.1,37.7,30.00,West,270,4.7,-999.0,91,-99.99,,,0.00,Acu-Link.com,2013-02-06 10:50:00,
2013-02-06 03:05:00,39.7,37.6,30.00,West,270,7.8,-999.0,92,-99.99,,,0.00,Acu-Link.com,2013-02-06 11:05:00,
2013-02-06 03:20:00,39.6,37.7,30.00,West,270,5.8,-999.0,93,-99.99,,,0.00,Acu-Link.com,2013-02-06 11:20:00,
2013-02-06 03:36:00,39.4,37.5,30.00,West,270,7.8,-999.0,93,-99.99,,,0.00,Acu-Link.com,2013-02-06 11:36:00,
2013-02-06 03:51:00,39.2,37.6,30.00,West,270,4.7,-999.0,94,-99.99,,,0.00,Acu-Link.com,2013-02-06 11:51:00,
2013-02-06 04:06:00,39.0,37.7,30.01,West,270,5.8,-999.0,95,-99.99,,,0.00,Acu-Link.com,2013-02-06 12:06:00,
2013-02-06 04:21:00,39.0,37.7,30.00,WNW,292,5.3,-999.0,95,-99.99,,,0.00,Acu-Link.com,2013-02-06 12:21:00,
2013-02-06 04:36:00,39.6,37.7,30.01,West,270,6.8,-999.0,93,-99.99,,,0.00,Acu-Link.com,2013-02-06 12:36:00,
2013-02-06 04:52:00,39.2,37.6,30.01,West,270,7.3,-999.0,94,-99.99,,,0.00,Acu-Link.com,2013-02-06 12:52:00,
2013-02-06 05:07:00,38.8,37.8,30.02,West,270,7.3,-999.0,96,-99.99,,,0.00,Acu-Link.com,2013-02-06 13:07:00,
2013-02-06 05:22:00,38.1,37.3,30.01,West,270,10.9,-999.0,97,-99.99,,,0.00,Acu-Link.com,2013-02-06 13:22:00,
2013-02-06 05:37:00,38.1,37.3,30.02,WNW,292,6.8,-999.0,97,-99.99,,,0.00,Acu-Link.com,2013-02-06 13:37:00,
2013-02-06 05:53:00,38.1,37.3,30.02,West,270,4.7,-999.0,97,-99.99,,,0.00,Acu-Link.com,2013-02-06 13:53:00,
2013-02-06 06:08:00,38.3,37.3,30.03,WNW,292,6.3,-999.0,96,-99.99,,,0.00,Acu-Link.com,2013-02-06 14:08:00,
2013-02-06 06:23:00,37.9,37.1,30.02,West,270,5.8,-999.0,97,-99.99,,,0.00,Acu-Link.com,2013-02-06 14:23:00,
2013-02-06 06:38:00,38.8,37.2,30.02,West,270,6.8,-999.0,94,-99.99,,,0.00,Acu-Link.com,2013-02-06 14:38:00,
2013-02-06 06:53:00,38.3,37.0,30.03,West,270,5.3,-999.0,95,-99.99,,,0.00,Acu-Link.com,2013-02-06 14:53:00,
2013-02-06 07:09:00,39.0,36.6,30.03,West,270,5.3,-999.0,91,-99.99,,,0.00,Acu-Link.com,2013-02-06 15:09:00,
2013-02-06 07:24:00,39.6,36.9,30.03,WSW,247,4.2,-999.0,90,-99.99,,,0.00,Acu-Link.com,2013-02-06 15:24:00,
2013-02-06 07:40:00,39.7,36.4,30.02,SW,225,4.7,-999.0,88,-99.99,,,0.00,Acu-Link.com,2013-02-06 15:40:00,
2013-02-06 07:55:00,40.5,36.1,30.02,SW,225,0.0,-999.0,84,-99.99,,,0.00,Acu-Link.com,2013-02-06 15:55:00,
2013-02-06 08:10:00,41.5,35.8,30.03,West,270,1.7,-999.0,80,-99.99,,,0.00,Acu-Link.com,2013-02-06 16:10:00,
2013-02-06 08:25:00,42.1,37.3,30.04,West,270,0.0,-999.0,83,-99.99,,,0.00,Acu-Link.com,2013-02-06 16:25:00,
2013-02-06 08:40:00,41.9,38.0,30.03,SSW,202,2.2,-999.0,86,-99.99,,,0.00,Acu-Link.com,2013-02-06 16:40:00,
2013-02-06 08:56:00,45.7,38.2,30.04,West,270,4.7,-999.0,75,-99.99,,,0.00,Acu-Link.com,2013-02-06 16:56:00,
2013-02-06 09:11:00,48.0,39.8,30.05,North,0,4.7,-999.0,73,-99.99,,,0.00,Acu-Link.com,2013-02-06 17:11:00,
2013-02-06 09:26:00,49.6,40.2,30.05,West,270,4.2,-999.0,70,-99.99,,,0.00,Acu-Link.com,2013-02-06 17:26:00,
2013-02-06 09:41:00,49.1,39.0,30.06,West,270,3.2,-999.0,68,-99.99,,,0.00,Acu-Link.com,2013-02-06 17:41:00,
2013-02-06 09:57:00,52.3,40.1,30.06,West,270,3.7,-999.0,63,-99.99,,,0.00,Acu-Link.com,2013-02-06 17:57:00,
2013-02-06 10:12:00,52.7,39.6,30.06,SE,135,6.3,-999.0,61,-99.99,,,0.00,Acu-Link.com,2013-02-06 18:12:00,
2013-02-06 10:27:00,53.1,40.4,30.06,WSW,247,4.7,-999.0,62,-99.99,,,0.00,Acu-Link.com,2013-02-06 18:27:00,
2013-02-06 10:42:00,51.3,39.9,30.07,WSW,247,5.8,-999.0,65,-99.99,,,0.00,Acu-Link.com,2013-02-06 18:42:00,
2013-02-06 10:57:00,54.7,39.8,30.06,WNW,292,4.7,-999.0,57,-99.99,,,0.00,Acu-Link.com,2013-02-06 18:57:00,
2013-02-06 11:13:00,57.7,40.7,30.06,WNW,292,4.7,-999.0,53,-99.99,,,0.00,Acu-Link.com,2013-02-06 19:13:00,
2013-02-06 11:28:00,58.8,40.7,30.05,WNW,292,3.7,-999.0,51,-99.99,,,0.00,Acu-Link.com,2013-02-06 19:28:00,
2013-02-06 11:43:00,60.4,40.6,30.04,WNW,292,2.2,-999.0,48,-99.99,,,0.00,Acu-Link.com,2013-02-06 19:43:00,
2013-02-06 11:58:00,58.8,38.6,30.04,WSW,247,3.7,-999.0,47,-99.99,,,0.00,Acu-Link.com,2013-02-06 19:58:00,
2013-02-06 12:13:00,63.5,40.0,30.03,West,270,3.7,-999.0,42,-99.99,,,0.00,Acu-Link.com,2013-02-06 20:13:00,
2013-02-06 12:29:00,63.1,39.0,30.02,WNW,292,4.7,-999.0,41,-99.99,,,0.00,Acu-Link.com,2013-02-06 20:29:00,
2013-02-06 12:44:00,61.0,38.9,30.01,South,180,4.7,-999.0,44,-99.99,,,0.00,Acu-Link.com,2013-02-06 20:44:00,
2013-02-06 12:59:00,61.5,38.2,30.00,SSW,202,6.8,-999.0,42,-99.99,,,0.00,Acu-Link.com,2013-02-06 20:59:00,
2013-02-06 13:14:00,60.3,39.4,29.99,South,180,5.3,-999.0,46,-99.99,,,0.00,Acu-Link.com,2013-02-06 21:14:00,
2013-02-06 13:29:00,62.6,39.2,29.99,West,270,10.4,-999.0,42,-99.99,,,0.00,Acu-Link.com,2013-02-06 21:29:00,
2013-02-06 13:45:00,62.6,37.3,29.98,WSW,247,9.4,-999.0,39,-99.99,,,0.00,Acu-Link.com,2013-02-06 21:45:00,
2013-02-06 14:00:00,60.1,38.1,29.98,West,270,10.4,-999.0,44,-99.99,,,0.00,Acu-Link.com,2013-02-06 22:00:00,
2013-02-06 14:15:00,60.6,37.4,29.98,NNW,337,8.3,-999.0,42,-99.99,,,0.00,Acu-Link.com,2013-02-06 22:15:00,
2013-02-06 14:30:00,60.4,35.3,29.97,West,270,9.4,-999.0,39,-99.99,,,0.00,Acu-Link.com,2013-02-06 22:30:00,
2013-02-06 14:46:00,58.8,36.4,29.97,West,270,12.5,-999.0,43,-99.99,,,0.00,Acu-Link.com,2013-02-06 22:46:00,
2013-02-06 15:01:00,61.7,38.4,29.97,SW,225,7.3,-999.0,42,-99.99,,,0.00,Acu-Link.com,2013-02-06 23:01:00,
2013-02-06 15:16:00,60.3,38.3,29.97,NW,315,6.8,-999.0,44,-99.99,,,0.00,Acu-Link.com,2013-02-06 23:16:00,
2013-02-06 15:31:00,58.1,38.5,29.97,WSW,247,12.5,-999.0,48,-99.99,,,0.00,Acu-Link.com,2013-02-06 23:31:00,
2013-02-06 15:46:00,57.6,38.6,29.97,SE,135,8.9,-999.0,49,-99.99,,,0.00,Acu-Link.com,2013-02-06 23:46:00,
2013-02-06 16:02:00,58.3,39.7,29.97,WNW,292,6.3,-999.0,50,-99.99,,,0.00,Acu-Link.com,2013-02-07 00:02:00,
2013-02-06 16:17:00,58.8,40.2,29.96,WSW,247,6.8,-999.0,50,-99.99,,,0.00,Acu-Link.com,2013-02-07 00:17:00,
2013-02-06 16:32:00,56.8,39.9,29.96,WSW,247,6.3,-999.0,53,-99.99,,,0.00,Acu-Link.com,2013-02-07 00:32:00,
2013-02-06 16:47:00,55.4,39.5,29.96,West,270,8.3,-999.0,55,-99.99,,,0.00,Acu-Link.com,2013-02-07 00:47:00,
2013-02-06 17:02:00,54.7,40.7,29.96,SW,225,7.8,-999.0,59,-99.99,,,0.00,Acu-Link.com,2013-02-07 01:02:00,
2013-02-06 17:18:00,51.8,41.2,29.96,SSW,202,6.8,-999.0,67,-99.99,,,0.00,Acu-Link.com,2013-02-07 01:18:00,
2013-02-06 17:33:00,50.0,41.3,29.96,West,270,13.5,-999.0,72,-99.99,,,0.00,Acu-Link.com,2013-02-07 01:33:00,
2013-02-06 17:48:00,48.9,41.0,29.96,WSW,247,13.5,-999.0,74,-99.99,,,0.00,Acu-Link.com,2013-02-07 01:48:00,
2013-02-06 18:03:00,48.2,40.7,29.96,SW,225,14.5,-999.0,75,-99.99,,,0.00,Acu-Link.com,2013-02-07 02:03:00,
2013-02-06 18:19:00,47.5,40.7,29.96,SW,225,10.4,-999.0,77,-99.99,,,0.00,Acu-Link.com,2013-02-07 02:19:00,
2013-02-06 18:34:00,46.8,41.0,29.97,WSW,247,13.5,-999.0,80,-99.99,,,0.00,Acu-Link.com,2013-02-07 02:34:00,
2013-02-06 18:49:00,46.4,40.9,29.96,NNE,22,9.4,-999.0,81,-99.99,,,0.00,Acu-Link.com,2013-02-07 02:49:00,
2013-02-06 19:04:00,46.0,40.5,29.97,SW,225,9.9,-999.0,81,-99.99,,,0.00,Acu-Link.com,2013-02-07 03:04:00,
2013-02-06 19:19:00,45.5,40.3,29.98,SW,225,16.6,-999.0,82,-99.99,,,0.00,Acu-Link.com,2013-02-07 03:19:00,
2013-02-06 19:35:00,45.3,40.1,29.99,West,270,11.4,-999.0,82,-99.99,,,0.00,Acu-Link.com,2013-02-07 03:35:00,
2013-02-06 19:50:00,45.0,40.2,29.99,SW,225,15.5,-999.0,83,-99.99,,,0.00,Acu-Link.com,2013-02-07 03:50:00,
2013-02-06 20:05:00,44.8,39.6,29.98,SW,225,15.0,-999.0,82,-99.99,,,0.00,Acu-Link.com,2013-02-07 04:05:00,
2013-02-06 20:21:00,44.4,39.3,29.99,West,270,14.0,-999.0,82,-99.99,,,0.00,Acu-Link.com,2013-02-07 04:21:00,
2013-02-06 20:36:00,44.4,38.3,29.99,WSW,247,14.0,-999.0,79,-99.99,,,0.00,Acu-Link.com,2013-02-07 04:36:00,
2013-02-06 20:52:00,43.9,37.5,29.99,SSE,157,11.9,-999.0,78,-99.99,,,0.00,Acu-Link.com,2013-02-07 04:52:00,
2013-02-06 21:07:00,43.5,37.1,29.99,SE,135,10.4,-999.0,78,-99.99,,,0.00,Acu-Link.com,2013-02-07 05:07:00,
2013-02-06 21:22:00,43.3,36.9,29.99,West,270,10.4,-999.0,78,-99.99,,,0.00,Acu-Link.com,2013-02-07 05:22:00,
2013-02-06 21:37:00,43.0,36.6,30.00,NNW,337,11.4,-999.0,78,-99.99,,,0.00,Acu-Link.com,2013-02-07 05:37:00,
2013-02-06 21:53:00,42.6,36.6,30.00,SW,225,9.4,-999.0,79,-99.99,,,0.00,Acu-Link.com,2013-02-07 05:53:00,
2013-02-06 22:08:00,42.1,36.4,30.00,West,270,6.3,-999.0,80,-99.99,,,0.00,Acu-Link.com,2013-02-07 06:08:00,
2013-02-06 22:23:00,41.4,36.0,30.01,WSW,247,5.3,-999.0,81,-99.99,,,0.00,Acu-Link.com,2013-02-07 06:23:00,
2013-02-06 22:38:00,41.2,35.8,30.00,West,270,0.0,-999.0,81,-99.99,,,0.00,Acu-Link.com,2013-02-07 06:38:00,
2013-02-06 22:53:00,41.0,35.9,30.00,WNW,292,3.2,-999.0,82,-99.99,,,0.00,Acu-Link.com,2013-02-07 06:53:00,
2013-02-06 23:09:00,41.2,35.8,30.01,NNE,22,7.3,-999.0,81,-99.99,,,0.00,Acu-Link.com,2013-02-07 07:09:00,
2013-02-06 23:24:00,41.2,35.8,30.01,SSW,202,7.8,-999.0,81,-99.99,,,0.00,Acu-Link.com,2013-02-07 07:24:00,
2013-02-06 23:39:00,40.6,35.5,30.01,West,270,5.8,-999.0,82,-99.99,,,0.00,Acu-Link.com,2013-02-07 07:39:00,
2013-02-06 23:54:00,40.6,35.8,30.01,WSW,247,4.2,-999.0,83,-99.99,,,0.00,Acu-Link.com,2013-02-07 07:54:00,